Location: Maiden
(35.5760°N, 81.2120°W)
Time: 01:52:18
(UTC-04:00)

Terra - Pass Details

Date: 02 August 2020
Orbit: 701 x 703 km, 98.2° (Epoch: 11 August)

Event Time Altitude Azimuth Distance (km) Brightness Sun altitude
Exits shadow 23:33:19 49° 346° (NNW) 908 2.6 -30.1°
Drops below altitude 10° 23:36:47 10° 347° (NNW) 2,174 5.1 -30.5°
Sets 23:39:03 0° 348° (NNW) 3,095 6.2 -30.8°
